Latest Coastal Weather Observations for Alva Beach

IDQ60701

Issued at 3:51 am EST Wednesday 29 March 2017 (issued every 10 minutes, with the page automatically refreshed every 10 minutes)

About coastal observations | Map of coastal stations | Coastal observations for QLD | Marine services | Other Formats
Station Details ID: 033295 Name: ALVA BEACH Lat: -19.46 Lon: 147.48 Height: 7.5 m
Data from the previous 72 hours. | See also: Recent months at Alva Beach
Date/Time
EST
Temp
°C
Wind Pressure Rain since
9am
mm
Weather Cloud Vis
km
Sea
Height
m
Swell
Dir  Spd
kts
Gust
kts
hPa Trend Height
m
Period
s
Dir
29/03:30am 26.8 WNW 13 21 996.6 - 4.2 - - - - - - -
29/03:00am 27.4 WNW 15 26 996.4 - 4.2 Recent precip. - - - - - -
29/02:44am 27.4 WNW 15 25 996.2 - 4.0 - - - - - - -
29/02:30am 27.2 WNW 14 22 995.9 - 4.0 - - - - - - -
29/02:00am 27.4 WNW 15 25 996.1 - 4.0 - - - - - - -
29/01:30am 26.9 WNW 15 26 996.1 - 4.0 - - - - - - -
29/01:09am 27.5 WNW 15 25 996.0 - 4.0 - - - - - - -
29/01:00am 27.5 WNW 15 22 996.2 - 4.0 - - - - - - -
29/12:34am 26.7 WNW 15 25 996.0 - 4.0 - - - - - - -
29/12:30am 26.8 WNW 16 25 996.1 - 4.0 - - - - - - -
29/12:00am 26.6 WNW 16 27 996.3 - 3.6 - - - - - - -
 
Date/Time
EST
Temp
°C
Wind Pressure Rain since
9am
mm
Weather Cloud Vis
km
Sea
Height
m
Swell
Dir  Spd
kts
Gust
kts
hPa Trend Height
m
Period
s
Dir
28/11:36pm 26.9 WNW 15 25 996.4 - 3.6 - - - - - - -
28/11:30pm 26.8 WNW 15 23 996.3 - 3.6 - - - - - - -
28/11:00pm 26.3 WNW 15 25 996.4 - 3.6 - - - - - - -
28/10:30pm 26.7 WNW 17 28 996.1 - 3.6 - - - - - - -
28/10:00pm 26.2 WNW 16 27 996.2 - 3.6 - - - - - - -
28/09:30pm 26.2 WNW 16 26 996.0 - 3.6 - - - - - - -
28/09:00pm 25.8 WNW 16 27 995.8 - 3.6 Recent precip. - - - - - -
28/08:30pm 25.2 WNW 15 30 995.5 - 3.4 - - - - - - -
28/08:00pm 25.8 WNW 17 29 995.5 - 2.6 - - - - - - -
28/07:30pm 26.0 WNW 15 29 995.2 - 2.0 - - - - - - -
28/07:01pm 26.4 WNW 17 27 994.8 - 1.6 - - - - - - -
28/07:00pm 26.4 WNW 17 25 994.8 - 1.6 - - - - - - -
28/06:30pm 25.9 W 18 31 994.4 - 1.4 - - - - - - -
28/06:08pm 25.9 W 16 27 994.0 - 1.4 - - - - - - -
28/06:00pm 26.2 W 17 25 993.9 - 1.4 Rain - - - - - -
28/05:30pm 26.7 W 17 27 993.7 - 1.0 - - - - - - -
28/05:00pm 27.5 W 18 31 993.2 - 1.0 - - - - - - -
28/04:30pm 27.6 W 18 31 993.2 - 1.0 - - - - - - -
28/04:00pm 27.3 W 18 30 993.3 - 1.0 - - - - - - -
28/03:31pm 28.1 W 17 27 993.2 - 1.0 - - - - - - -
28/03:30pm 28.1 W 18 27 993.2 - 1.0 - - - - - - -
28/03:00pm 28.6 WSW 19 29 992.9 - 1.0 - - - - - - -
28/02:30pm 28.2 WSW 16 29 993.0 - 1.0 - - - - - - -
28/02:00pm 27.9 WSW 17 31 993.3 - 1.0 - - - - - - -
28/01:30pm 28.2 WSW 19 33 993.3 - 1.0 - - - - - - -
28/01:04pm 27.9 WSW 17 29 993.7 - 1.0 - - - - - - -
28/01:00pm 27.9 WSW 17 26 993.6 - 1.0 - - - - - - -
28/12:30pm 27.2 WSW 17 27 994.3 - 1.0 - - - - - - -
28/12:00pm 27.2 WSW 15 28 994.7 - 1.0 - - - - - - -
28/11:30am 26.8 WSW 17 27 995.2 - 1.0 - - - - - - -
28/11:12am 26.3 WSW 15 25 995.8 - 1.0 - - - - - - -
28/11:00am 25.9 WSW 16 25 995.7 - 1.0 - - - - - - -
28/10:30am 25.6 WSW 15 26 996.3 - 0.8 - - - - - - -
28/10:22am 25.6 WSW 15 26 996.4 - 0.8 - - - - - - -
28/10:00am 24.8 WSW 14 24 996.7 - 0.8 - - - - - - -
28/09:50am 24.7 WSW 15 25 996.7 - 0.6 - - - - - - -
28/09:30am 24.7 WSW 14 26 997.3 - 0.4 - - - - - - -
28/09:04am 24.4 WSW 15 26 997.4 - 0.2 - - - - - - -
28/09:00am 24.3 WSW 14 23 997.3 - 12.6 Rain - - - - - -
28/08:30am 24.2 WSW 15 28 997.6 - 11.4 - - - - - - -
28/08:25am 24.1 WSW 15 28 997.7 - 11.0 - - - - - - -
28/08:00am 24.1 WSW 14 21 997.3 - 9.6 - - - - - - -
28/07:30am 24.1 SW 13 26 997.3 - 7.4 - - - - - - -
28/07:04am 24.1 WSW 15 26 996.9 - 5.8 - - - - - - -
28/07:00am 24.1 WSW 15 24 996.9 - 5.6 - - - - - - -
28/06:30am 24.3 SW 15 25 997.1 - 4.0 - - - - - - -
28/06:00am 24.9 WSW 15 28 996.7 - 2.4 Recent precip. - - - - - -
28/05:36am 24.7 SW 15 26 996.7 - 2.4 - - - - - - -
28/05:30am 24.5 SW 13 21 996.8 - 2.4 - - - - - - -
28/05:00am 24.5 SW 13 19 997.0 - 2.0 - - - - - - -
28/04:30am 24.7 SW 12 22 997.1 - 1.4 - - - - - - -
28/04:00am 24.8 SW 11 20 997.3 - 1.2 - - - - - - -
28/03:30am 25.1 SW 12 19 997.5 - 1.0 - - - - - - -
28/03:00am 25.5 SW 10 17 997.7 - 0.6 Recent precip. - - - - - -
28/02:30am 26.2 SW 10 15 998.4 - 0.2 - - - - - - -
28/02:00am 25.9 SW 10 21 998.8 - 0.2 - - - - - - -
28/01:30am 26.4 SW 10 17 999.1 - 0.2 - - - - - - -
28/01:00am 27.1 SW 11 17 999.4 - 0.2 - - - - - - -
28/12:30am 26.9 SW 12 19 1000.0 - 0.2 - - - - - - -
28/12:00am 27.3 SW 10 19 1000.4 - 0.2 - - - - - - -
 
Date/Time
EST
Temp
°C
Wind Pressure Rain since
9am
mm
Weather Cloud Vis
km
Sea
Height
m
Swell
Dir  Spd
kts
Gust
kts
hPa Trend Height
m
Period
s
Dir
27/11:30pm 27.4 SW 11 20 1000.8 - 0.2 - - - - - - -
27/11:00pm 27.0 SW 11 18 1001.2 - 0.2 - - - - - - -
27/10:30pm 27.2 SW 9 22 1001.4 - 0.2 - - - - - - -
27/10:00pm 26.6 SW 9 15 1001.9 - 0.2 - - - - - - -
27/09:30pm 28.1 SW 10 20 1001.8 - 0.0 - - - - - - -
27/09:00pm 28.5 SW 9 20 1002.0 - 0.0 - - - - - - -
27/08:30pm 28.4 SW 10 17 1001.6 - 0.0 - - - - - - -
27/08:00pm 28.0 SW 10 17 1001.5 - 0.0 - - - - - - -
27/07:30pm 27.6 SW 9 17 1001.8 - 0.0 - - - - - - -
27/07:00pm 28.0 SW 13 23 1001.9 - 0.0 - - - - - - -
27/06:30pm 29.0 SW 9 15 1001.4 - 0.0 - - - - - - -
27/06:00pm 28.5 SW 8 12 1001.1 - 0.0 - - - - - - -
27/05:30pm 28.8 SW 10 16 1000.8 - 0.0 - - - - - - -
27/05:00pm 28.8 SW 9 14 1000.7 - 0.0 - - - - - - -
27/04:30pm 28.9 SW 8 15 1000.5 - 0.0 - - - - - - -
27/04:00pm 29.1 SW 10 17 1000.4 - 0.0 - - - - - - -
27/03:30pm 29.0 SW 9 16 1000.3 - 0.0 - - - - - - -
27/03:00pm 29.0 SW 10 15 1001.0 - 0.0 - - - - - - -
27/02:30pm 29.0 SW 10 19 1001.5 - 0.0 - - - - - - -
27/02:00pm 29.1 SW 9 15 1001.4 - 0.0 - - - - - - -
27/01:30pm 29.1 SW 8 14 1001.4 - 0.0 - - - - - - -
27/01:00pm 29.0 SW 9 15 1001.9 - 0.0 - - - - - - -
27/12:30pm 28.9 SW 10 19 1002.7 - 0.0 - - - - - - -
27/12:00pm 29.1 SW 9 15 1003.2 - 0.0 - - - - - - -
27/11:30am 29.0 SW 9 16 1003.8 - 0.0 - - - - - - -
27/11:00am 29.2 SW 10 18 1004.4 - 0.0 - - - - - - -
27/10:30am 28.8 SW 12 19 1004.7 - 0.0 - - - - - - -
27/10:00am 28.0 SW 9 16 1004.9 - 0.0 - - - - - - -
27/09:30am 27.4 SW 10 18 1005.1 - 0.0 - - - - - - -
27/09:00am 26.7 SW 8 15 1005.3 - 0.0 - - - - - - -
27/08:30am 26.4 SW 7 13 1005.2 - 0.0 - - - - - - -
27/08:00am 26.2 SW 8 13 1005.2 - 0.0 - - - - - - -
27/07:30am 25.7 SW 6 10 1005.0 - 0.0 - - - - - - -
27/07:00am 26.0 SW 7 10 1004.9 - 0.0 - - - - - - -
27/06:30am 26.0 SW 7 12 1004.7 - 0.0 - - - - - - -
27/06:00am 26.2 SW 8 13 1004.4 - 0.0 - - - - - - -
27/05:30am 26.2 SW 8 14 1004.3 - 0.0 - - - - - - -
27/05:00am 26.3 SW 7 13 1004.0 - 0.0 - - - - - - -
27/04:30am 26.1 SW 8 13 1004.1 - 0.0 - - - - - - -
27/04:00am 26.0 SW 7 10 1003.8 - 0.0 - - - - - - -
27/03:30am 25.6 SW 6 8 1004.3 - 0.0 - - - - - - -
27/03:00am 26.3 SW 7 12 1004.4 - 0.0 - - - - - - -
27/02:30am 26.5 SW 6 12 1004.4 - 0.0 - - - - - - -
27/02:00am 26.6 SW 8 12 1004.8 - 0.0 - - - - - - -
27/01:30am 26.5 SW 7 10 1005.3 - 0.0 - - - - - - -
27/01:00am 26.5 SW 5 9 1006.0 - 0.0 - - - - - - -
27/12:30am 27.0 SW 6 9 1006.2 - 0.0 - - - - - - -
27/12:00am 26.9 SW 5 9 1006.5 - 0.0 - - - - - - -
 
Date/Time
EST
Temp
°C
Wind Pressure Rain since
9am
mm
Weather Cloud Vis
km
Sea
Height
m
Swell
Dir  Spd
kts
Gust
kts
hPa Trend Height
m
Period
s
Dir
26/11:30pm 26.5 SW 6 10 1006.7 - 0.0 - - - - - - -
26/11:00pm 26.5 SSW 5 9 1006.9 - 0.0 - - - - - - -
26/10:30pm 26.6 SSW 5 9 1007.0 - 0.0 - - - - - - -
26/10:00pm 26.2 SSW 5 8 1007.1 - 0.0 - - - - - - -
26/09:30pm 25.9 SW 4 6 1007.1 - 0.0 - - - - - - -
26/09:00pm 26.1 S 3 5 1007.2 - 0.0 - - - - - - -
26/08:30pm 26.6 SSE 6 12 1007.0 - 0.0 - - - - - - -
26/08:00pm 27.5 SSW 5 7 1006.6 - 0.0 - - - - - - -
26/07:30pm 28.1 SSW 4 7 1006.1 - 0.0 - - - - - - -
26/07:00pm 28.5 SSW 7 17 1005.8 - 0.0 - - - - - - -
26/06:30pm 28.3 SSW 5 8 1005.7 - 0.0 - - - - - - -
26/06:00pm 28.3 SW 6 9 1005.1 - 0.0 - - - - - - -
26/05:30pm 28.7 SSW 6 9 1005.0 - 0.0 - - - - - - -
26/05:00pm 29.0 SSW 7 14 1004.4 - 0.0 - - - - - - -
26/04:30pm 29.3 SSW 8 15 1004.2 - 0.0 - - - - - - -
26/04:00pm 29.4 SSW 9 18 1004.0 - 0.0 - - - - - - -
26/03:30pm 29.7 SSW 10 19 1004.1 - 0.0 - - - - - - -
26/03:00pm 29.9 SSW 11 19 1004.5 - 0.0 - - - - - - -
26/02:30pm 30.1 SSW 10 19 1004.9 - 0.0 - - - - - - -
26/02:00pm 29.9 SSW 11 18 1005.3 - 0.0 - - - - - - -
26/01:30pm 29.7 SSW 10 17 1005.6 - 0.0 - - - - - - -
26/01:00pm 28.8 SW 10 19 1005.9 - 0.0 - - - - - - -
26/12:30pm 28.6 SSW 9 17 1006.5 - 0.0 - - - - - - -
26/12:00pm 28.4 SSW 9 15 1007.2 - 0.0 - - - - - - -
26/11:30am 27.9 SSW 7 12 1008.1 - 0.0 - - - - - - -
26/11:00am 27.8 SW 8 15 1008.6 - 0.0 - - - - - - -
26/10:30am 27.7 SW 7 13 1008.6 - 0.0 - - - - - - -
26/10:00am 27.3 SSW 9 16 1008.8 - 0.0 - - - - - - -
26/09:30am 26.8 SSW 9 14 1008.9 - 0.0 - - - - - - -
26/09:00am 25.8 SSW 8 15 1009.3 - 0.0 - - - - - - -
26/08:30am 25.8 SSW 9 17 1008.9 - 0.0 - - - - - - -
26/08:00am 25.1 SSW 4 10 1008.8 - 0.0 - - - - - - -
26/07:30am 24.1 SSW 7 10 1008.5 - 0.0 - - - - - - -
26/07:00am 23.6 SSW 7 12 1008.1 - 0.0 - - - - - - -
26/06:30am 23.4 SSW 7 12 1007.8 - 0.0 - - - - - - -
26/06:00am 23.2 SSW 7 10 1007.5 - 0.0 - - - - - - -
26/05:30am 23.5 SW 5 8 1007.2 - 0.0 - - - - - - -
26/05:00am 23.6 SW 5 11 1007.3 - 0.0 - - - - - - -
26/04:30am 24.0 SSW 6 9 1007.0 - 0.0 - - - - - - -
26/04:00am 23.6 SW 6 9 1006.9 - 0.0 - - - - - - -

Other Formats:

Comma delimited format used in spreadsheet applications
http://www.bom.gov.au/fwo/IDQ60701/IDQ60701.95296.axf

JavaScript Object Notation format (JSON) in row-major order
http://www.bom.gov.au/fwo/IDQ60701/IDQ60701.95296.json